Terminal Aerodrome Forecast
Issued by NWS Tuscon, AZ

Home | Current Version | Previous Version | Text Only | Print | Product List | Glossary On
Versions: 1 2 3 4 5 6 7 8 9 10 11 12 13 14 15 16 17 18
000
FTUS45 KTWC 220500
TAFDUG
TAF
KDUG 220520Z 2206/2306 VRB06KT P6SM -RA SCT050 OVC100
     FM220800 VRB04KT P6SM BKN100
     FM222000 30007KT P6SM VCSH SCT050 BKN100
     FM230100 36008KT P6SM BKN100=

USA.gov is the U.S. government's official web portal to all federal, state and local government web resources and services.